Weather Roundup
Issued by NWS

Home | Current Version | Previous Version | Text Only | Print | Product List | Glossary On
Versions: 1 2 3 4 5 6 7 8 9 10 11 12 13 14 15 16 17 18 19 20 21 22 23 24 25 26 27 28 29 30 31 32 33 34 35 36 37 38 39 40 41 42 43 44 45 46 47 48 49 50
093
NZUS93 KARX 271459
HRRWXR

CURRENT HOURLY OBSERVATIONS ACROSS
MUCH OF THE UPPER MISSISSIPPI VALLEY
NATIONAL WEATHER SERVICE LA CROSSE WI
1000 AM CDT MON MAR 27 2017


...SOUTHEAST MINNESOTA...


CITY           SKY/WX    TMP DP  RH WIND       PRES   REMARKS
ROCHESTER      CLOUDY    38  38 100 NW7       29.95R WCI  33
ROCHESTER/MAYO CLOUDY    38  38 100 CALM      29.95R
WINONA         CLOUDY    41  37  87 NW6       29.96R
AUSTIN         CLOUDY    39  37  93 N3        29.95R FOG
ALBERT LEA     CLOUDY    37  37 100 N3        29.95R FOG
DODGE CENTER   CLOUDY    37  37 100 N3        29.95R FOG
PRESTON        CLOUDY    39  37  93 N6        29.94R WCI  35
OWATONNA       CLOUDY    39  36  87 N8        29.96R WCI  34
FARIBAULT      CLOUDY    39  37  93 N9        29.97R WCI  33
$$

...ELSEWHERE IN MINNESOTA...


CITY           SKY/WX    TMP DP  RH WIND       PRES   REMARKS
MINNEAPOLIS    PTSUNNY   41  33  73 N3        29.97S
INTNL FALLS    MOSUNNY   39  33  79 CALM      29.99R
DULUTH         CLOUDY    37  34  89 N8        29.97R WCI  31
RED WING       CLOUDY    41  37  87 N5        29.96R
REDWOOD FALLS  CLOUDY    43  37  79 CALM      29.98R
MANKATO        CLOUDY    41  36  82 N10       29.97S
WORTHINGTON    CLOUDY    41  37  86 N7        29.98R
FAIRMONT       CLOUDY    41  37  86 NE8       29.97R
$$

...SOUTHWEST WISCONSIN...


CITY           SKY/WX    TMP DP  RH WIND       PRES   REMARKS
LA CROSSE      FOG       43  42  97 NW6       29.94S VSB 1
PRAIRIE DU CHI CLOUDY    42  41  95 CALM      29.94S FOG
BOSCOBEL       CLOUDY    45  41  86 NE3       29.94S
LONE ROCK      CLOUDY    44  40  85 CALM      29.94R
PLATTEVILLE    CLOUDY    43  43 100 CALM      29.94R
FORT MC COY    CLOUDY    39  39  99 CALM      29.94F
CAMP DOUGLAS   CLOUDY    41  41 100 N3        29.93S
MAUSTON-NEW LI CLOUDY    41  41  98 CALM      29.92F FOG
VIROQUA        CLOUDY    40  40 100 N5        29.92S
WIS DELLS      CLOUDY    40  40  97 CALM      29.93S FOG
$$

...ELSEWHERE IN WISCONSIN...


CITY           SKY/WX    TMP DP  RH WIND       PRES   REMARKS
MILWAUKEE      CLOUDY    45  39  79 CALM      29.96R
MADISON        CLOUDY    43  40  89 N5        29.94S
GREEN BAY      CLOUDY    41  38  89 NE5       29.95R
EAU CLAIRE     NOT AVBL
BLACK RVR FLS  CLOUDY    42  41  96 CALM      29.93S
MEDFORD        CLOUDY    34  33  94 N6        29.91S WCI  29
WAUSAU         CLOUDY    37  34  89 NE6       29.91S WCI  32
WIS RAPIDS     CLOUDY    41  39  93 CALM      29.94S
MARSHFIELD     CLOUDY    38  35  89 E3        29.91S
RICE LAKE      LGT RAIN  37  35  94 CALM      29.97F
$$

...NORTHEAST IOWA...


CITY           SKY/WX    TMP DP  RH WIND       PRES   REMARKS
WATERLOO       CLOUDY    43  40  89 N8        29.93S
DUBUQUE        CLOUDY    44  41  89 NE8       29.92S
DECORAH        CLOUDY    41  41 100 CALM      29.92S
MASON CITY     CLOUDY    41  38  89 N9        29.96R
CHARLES CITY   CLOUDY    41  41 100 N6        29.94R
OELWEIN        CLOUDY    43  43 100 N8        29.93S
$$

...ELSEWHERE IN IOWA...


CITY           SKY/WX    TMP DP  RH WIND       PRES   REMARKS
DES MOINES     CLOUDY    46  41  82 NE10      29.92F
IOWA CITY      CLOUDY    48  43  82 NE5       29.94S
FORT DODGE     CLOUDY    43  37  81 N10       29.96R
MARSHALLTOWN   CLOUDY    43  42  97 NE7       29.92S FOG
CEDAR RAPIDS   CLOUDY    45  44  97 N6        29.92R
$$

...NORTHERN ILLINOIS...


CITY           SKY/WX    TMP DP  RH WIND       PRES   REMARKS
CHICAGO-OHARE  FOG       47  45  93 E5        29.95R VSB 1/2
CHICAGO-MIDWAY CLOUDY    47  45  93 NE9       29.95R FOG
MOLINE         CLOUDY    49  45  86 NE5       29.93R
ROCKFORD       CLOUDY    48  43  82 NE7       29.96S
PEORIA         CLOUDY    50  47  89 NE5       29.93R
$$

NOTE: "FAIR" INDICATES FEW OR NO CLOUDS BELOW 12,000 FEET WITH NO
SIGNIFICANT WEATHER AND/OR OBSTRUCTIONS TO VISIBILITY. WIND
SPEEDS ARE IN MILES-PER-HOUR.




USA.gov is the U.S. government's official web portal to all federal, state and local government web resources and services.